Weather Roundup
Issued by NWS Corpus Christi, TX

Home | Current Version | Previous Version | Text Only | Print | Product List | Glossary On
Versions: 1 2 3 4 5 6 7 8 9 10 11 12 13 14 15 16 17 18 19 20 21 22 23 24 25 26 27 28 29 30 31 32 33 34 35 36 37 38 39 40 41 42 43 44 45 46 47 48 49 50
000
ASUS44 KCRP 292010
HRRCRP

SOUTH TEXAS REGIONAL WEATHER ROUNDUP
NATIONAL WEATHER SERVICE CORPUS CHRISTI TX
300 PM CDT WED MAR 29 2017


TXZ229>244-292100-
...CORPUS CHRISTI AREA OBSERVATIONS...

CITY           SKY/WX    TMP DP  RH WIND       PRES   REMARKS
CORPUS CHRISTI MOSUNNY   87  51  28 NE12      29.75F
NAS CORPUS CHR MOSUNNY   85  57  38 E8        29.75F
ROCKPORT       SUNNY     82  61  48 VRB7      29.75F
KINGSVILLE NAS MOSUNNY   89  44  20 N9        29.75F
ALICE          SUNNY     89  37  16 N13G18    29.75F
ORANGE GROVE   SUNNY     88  43  20 N15       29.77F
FALFURRIAS     SUNNY     88  38  17 NE12G18   29.75F
$$

...VICTORIA AREA OBSERVATIONS...

CITY           SKY/WX    TMP DP  RH WIND       PRES   REMARKS
VICTORIA       SUNNY     85  51  31 NW10      29.75F
BEEVILLE       FAIR      86  45  23 N12G17    29.77F
PLEASANTON     SUNNY     83  47  28 W10       29.79F
SAN ANTONIO    SUNNY     82  42  24 W13G23    29.78F
$$

...LAREDO AREA OBSERVATIONS...

CITY           SKY/WX    TMP DP  RH WIND       PRES   REMARKS
LAREDO         SUNNY     87  40  19 NW8       29.77F
COTULLA        MOSUNNY   89  32  13 NW8       29.76F
DEL RIO        SUNNY     85  35  16 W22G30    29.76F
MCALLEN        SUNNY     93  57  29 E17G28    29.73F HX  91
HEBBRONVILLE   SUNNY     85  34  16 N9        29.78F
$$

...OTHER TEXAS OBSERVATIONS...

CITY           SKY/WX    TMP DP  RH WIND       PRES   REMARKS
BROWNSVILLE    PTSUNNY   86  73  65 SE6       29.72F HX  93
HOUSTON        CLOUDY    75  70  84 CALM      29.75F
COL. STATION   MOSUNNY   80  65  59 S10       29.75F
AUSTIN         MOSUNNY   82  50  32 CALM      29.77F
WACO           SUNNY     78  50  37 S12       29.76F
FORT WORTH     MOSUNNY   82  42  24 SW26G32   29.70S
WICHITA FALLS  PTSUNNY   61  52  72 NW20      29.75R
LUBBOCK        LGT RAIN  47  42  83 N16G29    29.89R
EL PASO        MOSUNNY   66  31  27 N14G24    29.96F
$$

...MARINE OBSERVATIONS...

STATION/POSITION TIME  SKY/WX   TEMP    WIND        PRES    VSBY  WAVE   SWELL
                                AIR SEA DIR/SP/G                  HT/PER HT/PER
                 (UTC)          (F)     (DEG/KT/KT) (MB)    (MI)  (FT/S) (FT/S)
PORT ARANSAS     2000            72 73   80/  5/  6 1007.9F
BUOY 90 E PORT A 1950            75 73  160/ 10/ 12 1007.5F         8/ 9   8/ 9
BUOY 45 SE BAFFI 1950            74      90/  2/  6 1006.9F         8/ 9   8/ 9
BUOY 200 E PT IS 1950            77 77  150/ 19/ 23 1008.7F         9/ 8
BUOY 15 E GALVES 1950            73 72  140/ 19/ 25 1007.4F         7/ 9   3/ 9
$$




USA.gov is the U.S. government's official web portal to all federal, state and local government web resources and services.